owner,sensor,date,latitude,longitude,vertical_datum,wind_speed,wind_to_direction,wind_speed_of_gust,qcFlag 
COMPS,ioos:station:USF.COMPS:ARP:1,2011-08-01T00:00:00Z,28.4330,-82.6670,10.0,1.5,130.0,,'1111122,1111122,1111122' 
COMPS,ioos:station:USF.COMPS:ARP:1,2011-08-01T03:00:00Z,28.4330,-82.6670,10.0,2.1,120.0,,'1111122,1111122,1111122' 
COMPS,ioos:station:USF.COMPS:ARP:1,2011-08-01T04:00:00Z,28.4330,-82.6670,10.0,1.0,130.0,,'1111122,1111122,1111122' 
COMPS,ioos:station:USF.COMPS:ARP:1,2011-08-01T05:00:00Z,28.4330,-82.6670,10.0,1.0,170.0,,'1111122,1111122,1111122' 
COMPS,ioos:station:USF.COMPS:ARP:1,2011-08-01T07:00:00Z,28.4330,-82.6670,10.0,1.0,150.0,,'1111122,1111122,1111122' 
COMPS,ioos:station:USF.COMPS:ARP:1,2011-08-01T08:00:00Z,28.4330,-82.6670,10.0,1.0,140.0,,'1111122,1111122,1111122' 
COMPS,ioos:station:USF.COMPS:ARP:1,2011-08-01T09:00:00Z,28.4330,-82.6670,10.0,1.0,150.0,,'1111122,1111122,1111122' 
COMPS,ioos:station:USF.COMPS:ARP:1,2011-08-01T10:00:00Z,28.4330,-82.6670,10.0,1.0,170.0,,'1111122,1111122,1111122' 
COMPS,ioos:station:USF.COMPS:ARP:1,2011-08-01T11:00:00Z,28.4330,-82.6670,10.0,3.1,280.0,,'1111122,1111122,1111122' 
COMPS,ioos:station:USF.COMPS:ARP:1,2011-08-01T17:00:00Z,28.4330,-82.6670,10.0,3.6,290.0,,'1111122,1111122,1111122' 
COMPS,ioos:station:USF.COMPS:ARP:1,2011-08-01T18:00:00Z,28.4330,-82.6670,10.0,4.1,280.0,,'1111122,1111122,1111122' 
COMPS,ioos:station:USF.COMPS:ARP:1,2011-08-01T19:00:00Z,28.4330,-82.6670,10.0,4.6,290.0,,'1111122,1111122,1111122' 
COMPS,ioos:station:USF.COMPS:ARP:1,2011-08-01T21:00:00Z,28.4330,-82.6670,10.0,5.1,300.0,,'1111122,1111122,1111122' 
COMPS,ioos:station:USF.COMPS:ARP:1,2011-08-01T22:00:00Z,28.4330,-82.6670,10.0,3.1,290.0,,'1111122,1111122,1111122' 
COMPS,ioos:station:USF.COMPS:ARP:1,2011-08-01T23:00:00Z,28.4330,-82.6670,10.0,1.0,350.0,,'1111122,1111122,1111122' 
COMPS,ioos:station:USF.COMPS:ARP:1,2011-08-02T00:00:00Z,28.4330,-82.6670,10.0,1.0,130.0,,'1111122,1111122,1111122' 
COMPS,ioos:station:USF.COMPS:ARP:1,2011-08-02T01:00:00Z,28.4330,-82.6670,10.0,1.0,120.0,,'1111122,1111122,1111122' 
COMPS,ioos:station:USF.COMPS:ARP:1,2011-08-02T02:00:00Z,28.4330,-82.6670,10.0,1.0,140.0,,'1111122,1111122,1111122' 
COMPS,ioos:station:USF.COMPS:ARP:1,2011-08-02T03:00:00Z,28.4330,-82.6670,10.0,0.5,140.0,,'1111122,1111122,1111122' 
COMPS,ioos:station:USF.COMPS:ARP:1,2011-08-02T04:00:00Z,28.4330,-82.6670,10.0,1.0,140.0,,'1111122,1111122,1111122' 
COMPS,ioos:station:USF.COMPS:ARP:1,2011-08-02T05:00:00Z,28.4330,-82.6670,10.0,2.1,110.0,,'1111122,1111122,1111122' 
COMPS,ioos:station:USF.COMPS:ARP:1,2011-08-02T06:00:00Z,28.4330,-82.6670,10.0,2.1,120.0,,'1111122,1111122,1111122' 
COMPS,ioos:station:USF.COMPS:ARP:1,2011-08-02T07:00:00Z,28.4330,-82.6670,10.0,1.0,140.0,,'1111122,1111122,1111122' 
COMPS,ioos:station:USF.COMPS:ARP:1,2011-08-02T08:00:00Z,28.4330,-82.6670,10.0,1.0,130.0,,'1111122,1111122,1111122' 
COMPS,ioos:station:USF.COMPS:ARP:1,2011-08-02T10:00:00Z,28.4330,-82.6670,10.0,1.5,190.0,,'1111122,1111122,1111122' 
COMPS,ioos:station:USF.COMPS:ARP:1,2011-08-02T11:00:00Z,28.4330,-82.6670,10.0,1.0,180.0,,'1111122,1111122,1111122' 
COMPS,ioos:station:USF.COMPS:ARP:1,2011-08-02T12:00:00Z,28.4330,-82.6670,10.0,0.5,160.0,,'1111122,1111122,1111122' 
COMPS,ioos:station:USF.COMPS:ARP:1,2011-08-02T13:00:00Z,28.4330,-82.6670,10.0,0.5,160.0,,'1111122,1111122,1111122' 
COMPS,ioos:station:USF.COMPS:ARP:1,2011-08-02T14:00:00Z,28.4330,-82.6670,10.0,1.5,270.0,,'1111122,1111122,1111122' 
COMPS,ioos:station:USF.COMPS:ARP:1,2011-08-02T15:00:00Z,28.4330,-82.6670,10.0,3.1,290.0,,'1111122,1111122,1111122' 
COMPS,ioos:station:USF.COMPS:ARP:1,2011-08-02T16:00:00Z,28.4330,-82.6670,10.0,3.6,280.0,,'1111122,1111122,1111122' 
COMPS,ioos:station:USF.COMPS:ARP:1,2011-08-02T17:00:00Z,28.4330,-82.6670,10.0,3.6,300.0,,'1111122,1111122,1111122' 
COMPS,ioos:station:USF.COMPS:ARP:1,2011-08-02T18:00:00Z,28.4330,-82.6670,10.0,4.1,300.0,,'1111122,1111122,1111122' 
COMPS,ioos:station:USF.COMPS:ARP:1,2011-08-02T20:00:00Z,28.4330,-82.6670,10.0,4.6,300.0,,'1111122,1111122,1111122' 
COMPS,ioos:station:USF.COMPS:ARP:1,2011-08-02T23:00:00Z,28.4330,-82.6670,10.0,5.1,290.0,,'1111122,1111122,1111122' 
COMPS,ioos:station:USF.COMPS:ARP:1,2011-08-03T00:00:00Z,28.4330,-82.6670,10.0,3.6,300.0,,'1111122,1111122,1111122' 
COMPS,ioos:station:USF.COMPS:ARP:1,2011-08-03T01:00:00Z,28.4330,-82.6670,10.0,4.6,290.0,,'1111122,1111122,1111122' 
COMPS,ioos:station:USF.COMPS:ARP:1,2011-08-03T02:00:00Z,28.4330,-82.6670,10.0,3.6,290.0,,'1111122,1111122,1111122' 
COMPS,ioos:station:USF.COMPS:ARP:1,2011-08-03T04:00:00Z,28.4330,-82.6670,10.0,5.1,310.0,,'1111122,1111122,1111122' 
COMPS,ioos:station:USF.COMPS:ARP:1,2011-08-03T07:00:00Z,28.4330,-82.6670,10.0,4.1,310.0,,'1111122,1111122,1111122' 
COMPS,ioos:station:USF.COMPS:ARP:1,2011-08-03T10:00:00Z,28.4330,-82.6670,10.0,1.0,150.0,,'1111122,1111122,1111122' 
COMPS,ioos:station:USF.COMPS:ARP:1,2011-08-03T11:00:00Z,28.4330,-82.6670,10.0,3.1,310.0,,'1111122,1111122,1111122' 
COMPS,ioos:station:USF.COMPS:ARP:1,2011-08-03T12:00:00Z,28.4330,-82.6670,10.0,2.1,350.0,,'1111122,1111122,1111122' 
COMPS,ioos:station:USF.COMPS:ARP:1,2011-08-03T13:00:00Z,28.4330,-82.6670,10.0,3.6,310.0,,'1111122,1111122,1111122' 
COMPS,ioos:station:USF.COMPS:ARP:1,2011-08-03T15:00:00Z,28.4330,-82.6670,10.0,1.5,320.0,,'1111122,1111122,1111122' 
COMPS,ioos:station:USF.COMPS:ARP:1,2011-08-03T16:00:00Z,28.4330,-82.6670,10.0,3.1,300.0,,'1111122,1111122,1111122' 
COMPS,ioos:station:USF.COMPS:ARP:1,2011-08-03T19:00:00Z,28.4330,-82.6670,10.0,4.6,290.0,,'1111122,1111122,1111122' 
COMPS,ioos:station:USF.COMPS:ARP:1,2011-08-03T20:00:00Z,28.4330,-82.6670,10.0,4.6,290.0,,'1111122,1111122,1111122' 
COMPS,ioos:station:USF.COMPS:ARP:1,2011-08-03T21:00:00Z,28.4330,-82.6670,10.0,4.6,300.0,,'1111122,1111122,1111122' 
COMPS,ioos:station:USF.COMPS:ARP:1,2011-08-03T23:00:00Z,28.4330,-82.6670,10.0,3.6,290.0,,'1111122,1111122,1111122' 
COMPS,ioos:station:USF.COMPS:ARP:1,2011-08-04T00:00:00Z,28.4330,-82.6670,10.0,2.6,310.0,,'1111122,1111122,1111122' 
COMPS,ioos:station:USF.COMPS:ARP:1,2011-08-04T01:00:00Z,28.4330,-82.6670,10.0,3.1,320.0,,'1111122,1111122,1111122' 
COMPS,ioos:station:USF.COMPS:ARP:1,2011-08-04T02:00:00Z,28.4330,-82.6670,10.0,1.5,270.0,,'1111122,1111122,1111122' 
COMPS,ioos:station:USF.COMPS:ARP:1,2011-08-04T04:00:00Z,28.4330,-82.6670,10.0,1.5,290.0,,'1111122,1111122,1111122' 
COMPS,ioos:station:USF.COMPS:ARP:1,2011-08-04T05:00:00Z,28.4330,-82.6670,10.0,0.5,230.0,,'1111122,1111122,1111122' 
COMPS,ioos:station:USF.COMPS:ARP:1,2011-08-04T09:00:00Z,28.4330,-82.6670,10.0,1.0,130.0,,'1111122,1111122,1111122' 
COMPS,ioos:station:USF.COMPS:ARP:1,2011-08-04T10:00:00Z,28.4330,-82.6670,10.0,1.0,160.0,,'1111122,1111122,1111122' 
COMPS,ioos:station:USF.COMPS:ARP:1,2011-08-04T11:00:00Z,28.4330,-82.6670,10.0,1.0,90.0,,'1111122,1111122,1111122' 
COMPS,ioos:station:USF.COMPS:ARP:1,2011-08-04T12:00:00Z,28.4330,-82.6670,10.0,0.5,130.0,,'1111122,1111122,1111122' 
COMPS,ioos:station:USF.COMPS:ARP:1,2011-08-04T14:00:00Z,28.4330,-82.6670,10.0,1.0,330.0,,'1111122,1111122,1111122' 
COMPS,ioos:station:USF.COMPS:ARP:1,2011-08-04T17:00:00Z,28.4330,-82.6670,10.0,2.6,320.0,,'1111122,1111122,1111122' 
COMPS,ioos:station:USF.COMPS:ARP:1,2011-08-04T19:00:00Z,28.4330,-82.6670,10.0,3.6,310.0,,'1111122,1111122,1111122' 
COMPS,ioos:station:USF.COMPS:ARP:1,2011-08-04T20:00:00Z,28.4330,-82.6670,10.0,4.6,300.0,,'1111122,1111122,1111122' 
COMPS,ioos:station:USF.COMPS:ARP:1,2011-08-04T21:00:00Z,28.4330,-82.6670,10.0,3.6,290.0,,'1111122,1111122,1111122' 
COMPS,ioos:station:USF.COMPS:ARP:1,2011-08-04T23:00:00Z,28.4330,-82.6670,10.0,3.1,280.0,,'1111122,1111122,1111122' 
COMPS,ioos:station:USF.COMPS:ARP:1,2011-08-05T00:00:00Z,28.4330,-82.6670,10.0,3.1,290.0,,'1111122,1111122,1111122' 
COMPS,ioos:station:USF.COMPS:ARP:1,2011-08-05T02:00:00Z,28.4330,-82.6670,10.0,1.0,210.0,,'1111122,1111122,1111122' 
COMPS,ioos:station:USF.COMPS:ARP:1,2011-08-05T03:00:00Z,28.4330,-82.6670,10.0,1.0,140.0,,'1111122,1111122,1111122' 
COMPS,ioos:station:USF.COMPS:ARP:1,2011-08-05T05:00:00Z,28.4330,-82.6670,10.0,0.5,140.0,,'1111122,1111122,1111122' 
COMPS,ioos:station:USF.COMPS:ARP:1,2011-08-05T06:00:00Z,28.4330,-82.6670,10.0,1.0,180.0,,'1111122,1111122,1111122' 
COMPS,ioos:station:USF.COMPS:ARP:1,2011-08-05T07:00:00Z,28.4330,-82.6670,10.0,1.0,160.0,,'1111122,1111122,1111122' 
COMPS,ioos:station:USF.COMPS:ARP:1,2011-08-05T08:00:00Z,28.4330,-82.6670,10.0,1.0,190.0,,'1111122,1111122,1111122' 
COMPS,ioos:station:USF.COMPS:ARP:1,2011-08-05T10:00:00Z,28.4330,-82.6670,10.0,1.0,140.0,,'1111122,1111122,1111122' 
COMPS,ioos:station:USF.COMPS:ARP:1,2011-08-05T12:00:00Z,28.4330,-82.6670,10.0,1.0,140.0,,'1111122,1111122,1111122' 
COMPS,ioos:station:USF.COMPS:ARP:1,2011-08-05T13:00:00Z,28.4330,-82.6670,10.0,1.5,150.0,,'1111122,1111122,1111122' 
COMPS,ioos:station:USF.COMPS:ARP:1,2011-08-05T19:00:00Z,28.4330,-82.6670,10.0,4.6,300.0,,'1111122,1111122,1111122' 
COMPS,ioos:station:USF.COMPS:ARP:1,2011-08-05T20:00:00Z,28.4330,-82.6670,10.0,2.1,120.0,,'1111122,1111122,1111122' 
COMPS,ioos:station:USF.COMPS:ARP:1,2011-08-05T21:00:00Z,28.4330,-82.6670,10.0,0.5,120.0,,'1111122,1111122,1111122' 
COMPS,ioos:station:USF.COMPS:ARP:1,2011-08-05T22:00:00Z,28.4330,-82.6670,10.0,1.5,230.0,,'1111122,1111122,1111122' 
COMPS,ioos:station:USF.COMPS:ARP:1,2011-08-05T23:00:00Z,28.4330,-82.6670,10.0,2.1,310.0,,'1111122,1111122,1111122' 
COMPS,ioos:station:USF.COMPS:ARP:1,2011-08-06T00:00:00Z,28.4330,-82.6670,10.0,1.0,170.0,,'1111122,1111122,1111122' 
COMPS,ioos:station:USF.COMPS:ARP:1,2011-08-06T03:00:00Z,28.4330,-82.6670,10.0,1.0,110.0,,'1111122,1111122,1111122' 
COMPS,ioos:station:USF.COMPS:ARP:1,2011-08-06T04:00:00Z,28.4330,-82.6670,10.0,1.5,110.0,,'1111122,1111122,1111122' 
COMPS,ioos:station:USF.COMPS:ARP:1,2011-08-06T05:00:00Z,28.4330,-82.6670,10.0,3.6,120.0,,'1111122,1111122,1111122' 
COMPS,ioos:station:USF.COMPS:ARP:1,2011-08-06T07:00:00Z,28.4330,-82.6670,10.0,1.0,120.0,,'1111122,1111122,1111122' 
COMPS,ioos:station:USF.COMPS:ARP:1,2011-08-06T08:00:00Z,28.4330,-82.6670,10.0,1.0,160.0,,'1111122,1111122,1111122' 
COMPS,ioos:station:USF.COMPS:ARP:1,2011-08-06T12:00:00Z,28.4330,-82.6670,10.0,1.0,130.0,,'1111122,1111122,1111122' 
COMPS,ioos:station:USF.COMPS:ARP:1,2011-08-06T13:00:00Z,28.4330,-82.6670,10.0,1.0,200.0,,'1111122,1111122,1111122' 
COMPS,ioos:station:USF.COMPS:ARP:1,2011-08-06T14:00:00Z,28.4330,-82.6670,10.0,1.5,220.0,,'1111122,1111122,1111122' 
COMPS,ioos:station:USF.COMPS:ARP:1,2011-08-06T16:00:00Z,28.4330,-82.6670,10.0,3.1,310.0,,'1111122,1111122,1111122' 
COMPS,ioos:station:USF.COMPS:ARP:1,2011-08-06T17:00:00Z,28.4330,-82.6670,10.0,3.1,320.0,,'1111122,1111122,1111122' 
COMPS,ioos:station:USF.COMPS:ARP:1,2011-08-06T18:00:00Z,28.4330,-82.6670,10.0,2.6,290.0,,'1111122,1111122,1111122' 
COMPS,ioos:station:USF.COMPS:ARP:1,2011-08-06T19:00:00Z,28.4330,-82.6670,10.0,3.1,310.0,,'1111122,1111122,1111122' 
COMPS,ioos:station:USF.COMPS:ARP:1,2011-08-06T20:00:00Z,28.4330,-82.6670,10.0,3.6,320.0,,'1111122,1111122,1111122' 
COMPS,ioos:station:USF.COMPS:ARP:1,2011-08-06T21:00:00Z,28.4330,-82.6670,10.0,3.6,320.0,,'1111122,1111122,1111122' 
COMPS,ioos:station:USF.COMPS:ARP:1,2011-08-06T22:00:00Z,28.4330,-82.6670,10.0,4.1,310.0,,'1111122,1111122,1111122' 
COMPS,ioos:station:USF.COMPS:ARP:1,2011-08-07T00:00:00Z,28.4330,-82.6670,10.0,4.6,320.0,,'1111122,1111122,1111122' 
COMPS,ioos:station:USF.COMPS:ARP:1,2011-08-07T01:00:00Z,28.4330,-82.6670,10.0,3.1,320.0,,'1111122,1111122,1111122' 
COMPS,ioos:station:USF.COMPS:ARP:1,2011-08-07T02:00:00Z,28.4330,-82.6670,10.0,2.1,320.0,,'1111122,1111122,1111122' 
COMPS,ioos:station:USF.COMPS:ARP:1,2011-08-07T03:00:00Z,28.4330,-82.6670,10.0,2.1,330.0,,'1111122,1111122,1111122' 
COMPS,ioos:station:USF.COMPS:ARP:1,2011-08-07T04:00:00Z,28.4330,-82.6670,10.0,3.1,320.0,,'1111122,1111122,1111122' 
COMPS,ioos:station:USF.COMPS:ARP:1,2011-08-07T05:00:00Z,28.4330,-82.6670,10.0,3.1,310.0,,'1111122,1111122,1111122' 
COMPS,ioos:station:USF.COMPS:ARP:1,2011-08-07T06:00:00Z,28.4330,-82.6670,10.0,1.0,310.0,,'1111122,1111122,1111122' 
COMPS,ioos:station:USF.COMPS:ARP:1,2011-08-07T07:00:00Z,28.4330,-82.6670,10.0,1.0,120.0,,'1111122,1111122,1111122' 
COMPS,ioos:station:USF.COMPS:ARP:1,2011-08-07T08:00:00Z,28.4330,-82.6670,10.0,1.0,170.0,,'1111122,1111122,1111122' 
COMPS,ioos:station:USF.COMPS:ARP:1,2011-08-07T10:00:00Z,28.4330,-82.6670,10.0,0.5,170.0,,'1111122,1111122,1111122' 
COMPS,ioos:station:USF.COMPS:ARP:1,2011-08-07T11:00:00Z,28.4330,-82.6670,10.0,3.6,280.0,,'1111122,1111122,1111122' 
COMPS,ioos:station:USF.COMPS:ARP:1,2011-08-07T12:00:00Z,28.4330,-82.6670,10.0,4.1,290.0,,'1111122,1111122,1111122' 
COMPS,ioos:station:USF.COMPS:ARP:1,2011-08-07T13:00:00Z,28.4330,-82.6670,10.0,4.1,280.0,,'1111122,1111122,1111122' 
COMPS,ioos:station:USF.COMPS:ARP:1,2011-08-07T14:00:00Z,28.4330,-82.6670,10.0,5.1,300.0,,'1111122,1111122,1111122' 
COMPS,ioos:station:USF.COMPS:ARP:1,2011-08-07T16:00:00Z,28.4330,-82.6670,10.0,5.1,290.0,,'1111122,1111122,1111122' 
COMPS,ioos:station:USF.COMPS:ARP:1,2011-08-07T17:00:00Z,28.4330,-82.6670,10.0,5.1,300.0,,'1111122,1111122,1111122' 
COMPS,ioos:station:USF.COMPS:ARP:1,2011-08-07T20:00:00Z,28.4330,-82.6670,10.0,5.1,310.0,,'1111122,1111122,1111122' 
COMPS,ioos:station:USF.COMPS:ARP:1,2011-08-07T21:00:00Z,28.4330,-82.6670,10.0,6.2,300.0,,'1111122,1111122,1111122' 
COMPS,ioos:station:USF.COMPS:ARP:1,2011-08-07T22:00:00Z,28.4330,-82.6670,10.0,7.7,300.0,,'1111122,1111122,1111122' 
COMPS,ioos:station:USF.COMPS:ARP:1,2011-08-08T00:00:00Z,28.4330,-82.6670,10.0,6.2,310.0,,'1111122,1111122,1111122' 
COMPS,ioos:station:USF.COMPS:ARP:1,2011-08-08T02:00:00Z,28.4330,-82.6670,10.0,3.1,300.0,,'1111122,1111122,1111122' 
COMPS,ioos:station:USF.COMPS:ARP:1,2011-08-08T04:00:00Z,28.4330,-82.6670,10.0,1.0,190.0,,'1111122,1111122,1111122' 
COMPS,ioos:station:USF.COMPS:ARP:1,2011-08-08T05:00:00Z,28.4330,-82.6670,10.0,5.1,290.0,,'1111122,1111122,1111122' 
COMPS,ioos:station:USF.COMPS:ARP:1,2011-08-08T08:00:00Z,28.4330,-82.6670,10.0,4.1,280.0,,'1111122,1111122,1111122' 
COMPS,ioos:station:USF.COMPS:ARP:1,2011-08-08T09:00:00Z,28.4330,-82.6670,10.0,5.1,280.0,,'1111122,1111122,1111122' 
COMPS,ioos:station:USF.COMPS:ARP:1,2011-08-08T10:00:00Z,28.4330,-82.6670,10.0,6.2,290.0,,'1111122,1111122,1111122' 
COMPS,ioos:station:USF.COMPS:ARP:1,2011-08-08T11:00:00Z,28.4330,-82.6670,10.0,3.1,260.0,,'1111122,1111122,1111122' 
COMPS,ioos:station:USF.COMPS:ARP:1,2011-08-08T12:00:00Z,28.4330,-82.6670,10.0,5.7,280.0,,'1111122,1111122,1111122' 
COMPS,ioos:station:USF.COMPS:ARP:1,2011-08-08T13:00:00Z,28.4330,-82.6670,10.0,5.1,280.0,,'1111122,1111122,1111122' 
COMPS,ioos:station:USF.COMPS:ARP:1,2011-08-08T14:00:00Z,28.4330,-82.6670,10.0,4.6,290.0,,'1111122,1111122,1111122' 
COMPS,ioos:station:USF.COMPS:ARP:1,2011-08-08T15:00:00Z,28.4330,-82.6670,10.0,5.1,300.0,,'1111122,1111122,1111122' 
COMPS,ioos:station:USF.COMPS:ARP:1,2011-08-08T16:00:00Z,28.4330,-82.6670,10.0,4.1,280.0,,'1111122,1111122,1111122' 
COMPS,ioos:station:USF.COMPS:ARP:1,2011-08-08T18:00:00Z,28.4330,-82.6670,10.0,6.7,270.0,,'1111122,1111122,1111122' 
COMPS,ioos:station:USF.COMPS:ARP:1,2011-08-08T19:00:00Z,28.4330,-82.6670,10.0,5.7,300.0,,'1111122,1111122,1111122' 
COMPS,ioos:station:USF.COMPS:ARP:1,2011-08-08T20:00:00Z,28.4330,-82.6670,10.0,6.7,290.0,,'1111122,1111122,1111122' 
COMPS,ioos:station:USF.COMPS:ARP:1,2011-08-08T21:00:00Z,28.4330,-82.6670,10.0,6.2,300.0,,'1111122,1111122,1111122' 
COMPS,ioos:station:USF.COMPS:ARP:1,2011-08-08T22:00:00Z,28.4330,-82.6670,10.0,6.2,290.0,,'1111122,1111122,1111122' 
COMPS,ioos:station:USF.COMPS:ARP:1,2011-08-08T23:00:00Z,28.4330,-82.6670,10.0,3.6,60.0,,'1111122,1111122,1111122' 
COMPS,ioos:station:USF.COMPS:ARP:1,2011-08-09T01:00:00Z,28.4330,-82.6670,10.0,1.0,150.0,,'1111122,1111122,1111122' 
COMPS,ioos:station:USF.COMPS:ARP:1,2011-08-09T02:00:00Z,28.4330,-82.6670,10.0,1.5,170.0,,'1111122,1111122,1111122' 
COMPS,ioos:station:USF.COMPS:ARP:1,2011-08-09T04:00:00Z,28.4330,-82.6670,10.0,1.0,190.0,,'1111122,1111122,1111122' 
COMPS,ioos:station:USF.COMPS:ARP:1,2011-08-09T05:00:00Z,28.4330,-82.6670,10.0,1.5,240.0,,'1111122,1111122,1111122' 
COMPS,ioos:station:USF.COMPS:ARP:1,2011-08-09T06:00:00Z,28.4330,-82.6670,10.0,4.6,290.0,,'1111122,1111122,1111122' 
COMPS,ioos:station:USF.COMPS:ARP:1,2011-08-09T07:00:00Z,28.4330,-82.6670,10.0,5.7,290.0,,'1111122,1111122,1111122' 
COMPS,ioos:station:USF.COMPS:ARP:1,2011-08-09T08:00:00Z,28.4330,-82.6670,10.0,5.1,290.0,,'1111122,1111122,1111122' 
COMPS,ioos:station:USF.COMPS:ARP:1,2011-08-09T09:00:00Z,28.4330,-82.6670,10.0,5.7,290.0,,'1111122,1111122,1111122' 
COMPS,ioos:station:USF.COMPS:ARP:1,2011-08-09T10:00:00Z,28.4330,-82.6670,10.0,6.2,290.0,,'1111122,1111122,1111122' 
COMPS,ioos:station:USF.COMPS:ARP:1,2011-08-09T11:00:00Z,28.4330,-82.6670,10.0,4.6,280.0,,'1111122,1111122,1111122' 
COMPS,ioos:station:USF.COMPS:ARP:1,2011-08-09T12:00:00Z,28.4330,-82.6670,10.0,6.2,290.0,,'1111122,1111122,1111122' 
COMPS,ioos:station:USF.COMPS:ARP:1,2011-08-09T13:00:00Z,28.4330,-82.6670,10.0,2.6,280.0,,'1111122,1111122,1111122' 
COMPS,ioos:station:USF.COMPS:ARP:1,2011-08-09T16:00:00Z,28.4330,-82.6670,10.0,3.6,120.0,,'1111122,1111122,1111122' 
COMPS,ioos:station:USF.COMPS:ARP:1,2011-08-09T17:00:00Z,28.4330,-82.6670,10.0,0.5,50.0,,'1111122,1111122,1111122' 
COMPS,ioos:station:USF.COMPS:ARP:1,2011-08-09T18:00:00Z,28.4330,-82.6670,10.0,5.7,320.0,,'1111122,1111122,1111122' 
COMPS,ioos:station:USF.COMPS:ARP:1,2011-08-09T21:00:00Z,28.4330,-82.6670,10.0,1.0,240.0,,'1111122,1111122,1111122' 
COMPS,ioos:station:USF.COMPS:ARP:1,2011-08-09T22:00:00Z,28.4330,-82.6670,10.0,1.0,240.0,,'1111122,1111122,1111122' 
COMPS,ioos:station:USF.COMPS:ARP:1,2011-08-09T23:00:00Z,28.4330,-82.6670,10.0,1.0,220.0,,'1111122,1111122,1111122' 
COMPS,ioos:station:USF.COMPS:ARP:1,2011-08-10T00:00:00Z,28.4330,-82.6670,10.0,1.0,210.0,,'1111122,1111122,1111122' 
COMPS,ioos:station:USF.COMPS:ARP:1,2011-08-10T01:00:00Z,28.4330,-82.6670,10.0,1.0,250.0,,'1111122,1111122,1111122' 
COMPS,ioos:station:USF.COMPS:ARP:1,2011-08-10T02:00:00Z,28.4330,-82.6670,10.0,1.0,280.0,,'1111122,1111122,1111122' 
COMPS,ioos:station:USF.COMPS:ARP:1,2011-08-10T03:00:00Z,28.4330,-82.6670,10.0,3.6,280.0,,'1111122,1111122,1111122' 
COMPS,ioos:station:USF.COMPS:ARP:1,2011-08-10T04:00:00Z,28.4330,-82.6670,10.0,4.6,280.0,,'1111122,1111122,1111122' 
COMPS,ioos:station:USF.COMPS:ARP:1,2011-08-10T05:00:00Z,28.4330,-82.6670,10.0,5.1,290.0,,'1111122,1111122,1111122' 
COMPS,ioos:station:USF.COMPS:ARP:1,2011-08-10T07:00:00Z,28.4330,-82.6670,10.0,4.1,320.0,,'1111122,1111122,1111122' 
COMPS,ioos:station:USF.COMPS:ARP:1,2011-08-10T08:00:00Z,28.4330,-82.6670,10.0,5.1,280.0,,'1111122,1111122,1111122' 
COMPS,ioos:station:USF.COMPS:ARP:1,2011-08-10T09:00:00Z,28.4330,-82.6670,10.0,5.1,280.0,,'1111122,1111122,1111122' 
COMPS,ioos:station:USF.COMPS:ARP:1,2011-08-10T10:00:00Z,28.4330,-82.6670,10.0,3.6,270.0,,'1111122,1111122,1111122' 
COMPS,ioos:station:USF.COMPS:ARP:1,2011-08-10T11:00:00Z,28.4330,-82.6670,10.0,2.1,230.0,,'1111122,1111122,1111122' 
COMPS,ioos:station:USF.COMPS:ARP:1,2011-08-10T12:00:00Z,28.4330,-82.6670,10.0,4.1,320.0,,'1111122,1111122,1111122' 
COMPS,ioos:station:USF.COMPS:ARP:1,2011-08-10T13:00:00Z,28.4330,-82.6670,10.0,5.7,290.0,,'1111122,1111122,1111122' 
COMPS,ioos:station:USF.COMPS:ARP:1,2011-08-10T14:00:00Z,28.4330,-82.6670,10.0,1.5,240.0,,'1111122,1111122,1111122' 
COMPS,ioos:station:USF.COMPS:ARP:1,2011-08-10T15:00:00Z,28.4330,-82.6670,10.0,4.1,270.0,,'1111122,1111122,1111122' 
COMPS,ioos:station:USF.COMPS:ARP:1,2011-08-10T17:00:00Z,28.4330,-82.6670,10.0,5.1,280.0,,'1111122,1111122,1111122' 
COMPS,ioos:station:USF.COMPS:ARP:1,2011-08-10T19:00:00Z,28.4330,-82.6670,10.0,6.7,300.0,,'1111122,1111122,1111122' 
COMPS,ioos:station:USF.COMPS:ARP:1,2011-08-10T20:00:00Z,28.4330,-82.6670,10.0,8.2,300.0,,'1111122,1111122,1111122' 
COMPS,ioos:station:USF.COMPS:ARP:1,2011-08-10T23:00:00Z,28.4330,-82.6670,10.0,5.7,300.0,,'1111122,1111122,1111122' 
COMPS,ioos:station:USF.COMPS:ARP:1,2011-08-11T00:00:00Z,28.4330,-82.6670,10.0,6.7,310.0,,'1111122,1111122,1111122' 
COMPS,ioos:station:USF.COMPS:ARP:1,2011-08-11T01:00:00Z,28.4330,-82.6670,10.0,5.1,310.0,,'1111122,1111122,1111122' 
COMPS,ioos:station:USF.COMPS:ARP:1,2011-08-11T02:00:00Z,28.4330,-82.6670,10.0,5.7,310.0,,'1111122,1111122,1111122' 
COMPS,ioos:station:USF.COMPS:ARP:1,2011-08-11T03:00:00Z,28.4330,-82.6670,10.0,3.1,320.0,,'1111122,1111122,1111122' 
COMPS,ioos:station:USF.COMPS:ARP:1,2011-08-11T04:00:00Z,28.4330,-82.6670,10.0,1.0,330.0,,'1111122,1111122,1111122' 
COMPS,ioos:station:USF.COMPS:ARP:1,2011-08-11T08:00:00Z,28.4330,-82.6670,10.0,2.1,310.0,,'1111122,1111122,1111122' 
COMPS,ioos:station:USF.COMPS:ARP:1,2011-08-11T09:00:00Z,28.4330,-82.6670,10.0,1.5,250.0,,'1111122,1111122,1111122' 
COMPS,ioos:station:USF.COMPS:ARP:1,2011-08-11T11:00:00Z,28.4330,-82.6670,10.0,0.5,300.0,,'1111122,1111122,1111122' 
COMPS,ioos:station:USF.COMPS:ARP:1,2011-08-11T13:00:00Z,28.4330,-82.6670,10.0,4.1,320.0,,'1111122,1111122,1111122' 
COMPS,ioos:station:USF.COMPS:ARP:1,2011-08-11T16:00:00Z,28.4330,-82.6670,10.0,2.1,310.0,,'1111122,1111122,1111122' 
COMPS,ioos:station:USF.COMPS:ARP:1,2011-08-11T17:00:00Z,28.4330,-82.6670,10.0,3.1,300.0,,'1111122,1111122,1111122' 
COMPS,ioos:station:USF.COMPS:ARP:1,2011-08-11T18:00:00Z,28.4330,-82.6670,10.0,3.6,320.0,,'1111122,1111122,1111122' 
COMPS,ioos:station:USF.COMPS:ARP:1,2011-08-11T19:00:00Z,28.4330,-82.6670,10.0,4.6,310.0,,'1111122,1111122,1111122' 
COMPS,ioos:station:USF.COMPS:ARP:1,2011-08-11T20:00:00Z,28.4330,-82.6670,10.0,4.6,320.0,,'1111122,1111122,1111122' 
COMPS,ioos:station:USF.COMPS:ARP:1,2011-08-11T21:00:00Z,28.4330,-82.6670,10.0,4.6,310.0,,'1111122,1111122,1111122' 
COMPS,ioos:station:USF.COMPS:ARP:1,2011-08-11T22:00:00Z,28.4330,-82.6670,10.0,5.1,310.0,,'1111122,1111122,1111122' 
COMPS,ioos:station:USF.COMPS:ARP:1,2011-08-11T23:00:00Z,28.4330,-82.6670,10.0,5.1,320.0,,'1111122,1111122,1111122' 
COMPS,ioos:station:USF.COMPS:ARP:1,2011-08-12T01:00:00Z,28.4330,-82.6670,10.0,2.1,320.0,,'1111122,1111122,1111122' 
COMPS,ioos:station:USF.COMPS:ARP:1,2011-08-12T02:00:00Z,28.4330,-82.6670,10.0,1.0,310.0,,'1111122,1111122,1111122' 
COMPS,ioos:station:USF.COMPS:ARP:1,2011-08-12T04:00:00Z,28.4330,-82.6670,10.0,2.6,300.0,,'1111122,1111122,1111122' 
COMPS,ioos:station:USF.COMPS:ARP:1,2011-08-12T05:00:00Z,28.4330,-82.6670,10.0,1.0,170.0,,'1111122,1111122,1111122' 
COMPS,ioos:station:USF.COMPS:ARP:1,2011-08-12T09:00:00Z,28.4330,-82.6670,10.0,0.5,210.0,,'1111122,1111122,1111122' 
COMPS,ioos:station:USF.COMPS:ARP:1,2011-08-12T10:00:00Z,28.4330,-82.6670,10.0,1.0,190.0,,'1111122,1111122,1111122' 
COMPS,ioos:station:USF.COMPS:ARP:1,2011-08-12T11:00:00Z,28.4330,-82.6670,10.0,0.5,130.0,,'1111122,1111122,1111122' 
COMPS,ioos:station:USF.COMPS:ARP:1,2011-08-12T14:00:00Z,28.4330,-82.6670,10.0,2.6,310.0,,'1111122,1111122,1111122' 
COMPS,ioos:station:USF.COMPS:ARP:1,2011-08-12T15:00:00Z,28.4330,-82.6670,10.0,2.6,310.0,,'1111122,1111122,1111122' 
COMPS,ioos:station:USF.COMPS:ARP:1,2011-08-12T17:00:00Z,28.4330,-82.6670,10.0,2.6,310.0,,'1111122,1111122,1111122' 
COMPS,ioos:station:USF.COMPS:ARP:1,2011-08-12T19:00:00Z,28.4330,-82.6670,10.0,3.1,310.0,,'1111122,1111122,1111122' 
COMPS,ioos:station:USF.COMPS:ARP:1,2011-08-12T20:00:00Z,28.4330,-82.6670,10.0,4.1,310.0,,'1111122,1111122,1111122' 
COMPS,ioos:station:USF.COMPS:ARP:1,2011-08-12T21:00:00Z,28.4330,-82.6670,10.0,4.1,300.0,,'1111122,1111122,1111122' 
COMPS,ioos:station:USF.COMPS:ARP:1,2011-08-12T23:00:00Z,28.4330,-82.6670,10.0,3.6,320.0,,'1111122,1111122,1111122' 
COMPS,ioos:station:USF.COMPS:ARP:1,2011-08-13T00:00:00Z,28.4330,-82.6670,10.0,1.5,340.0,,'1111122,1111122,1111122' 
COMPS,ioos:station:USF.COMPS:ARP:1,2011-08-13T01:00:00Z,28.4330,-82.6670,10.0,1.0,90.0,,'1111122,1111122,1111122' 
COMPS,ioos:station:USF.COMPS:ARP:1,2011-08-13T02:00:00Z,28.4330,-82.6670,10.0,1.0,90.0,,'1111122,1111122,1111122' 
COMPS,ioos:station:USF.COMPS:ARP:1,2011-08-13T03:00:00Z,28.4330,-82.6670,10.0,1.5,110.0,,'1111122,1111122,1111122' 